Flag for Saint Vincent and Grenadines Weather past 2 weeks in Kingstown, Saint Vincent and Grenadines

Now
82 °F

Passing clouds.


Feels Like: 89 °F
Forecast: 81 / 87 °F
Wind: 6 mph from East

Location: Arnos Vale

Current Time: Sep 4, 2015 at 12:28:23 AM

Latest Report: Sep 3, 2015 at 10:00 PM


Visibility: N/A

Pressure: 29.98 "Hg

Humidity: 79%

Dew point: 75 °F

Location of KingstownLocation

Historic Weather in Kingstown — Graph

°F

Kingstown temperature yesterday

Maximum temperature yesterday: 90 °F (at 12:00 PM)
Minimum temperature yesterday: 81 °F (at 6:00 AM)
Average temperature yesterday: 86 °F

Past Weeks' High & Low Weather Summary

 TemperatureHumidityPressure
High90 °F (Aug 20, 2:00 PM)94% (Aug 26, 6:00 AM)30.04 "Hg (Aug 26, 6:00 AM)
Low77 °F (Aug 24, 6:00 AM)59% (Aug 22, 9:00 AM)29.86 "Hg (Aug 23, 3:00 PM)
Average85 °F75%29.95 "Hg
* Reported Aug 19 10:00 PM — Sep 3 10:00 PM, Kingstown, Weather by CustomWeather, © 2015

Note: Actual official high and low records may vary slightly from our data, if they occured in-between our weather recording intervals... More about our weather records

Advertising

Kingstown weather history for previous 24 hours

 ConditionsComfort  
Time TempWeatherWind HumidityBarometerVisibility
10:00 PM
Thu, Sep 3
82 °FPassing clouds.6 mph79%29.98 "HgN/A
9:00 PM82 °FPassing clouds.9 mph79%29.98 "HgN/A
8:00 PM82 °FPassing clouds.9 mph74%29.95 "HgN/A
7:00 PM82 °FPassing clouds.5 mph79%29.95 "HgN/A
6:00 PM84 °FPassing clouds.12 mph74%29.92 "HgN/A
5:00 PM88 °FWarm.N/A66%29.92 "HgN/A
4:00 PM88 °FPassing clouds.14 mph62%29.92 "HgN/A
3:00 PM90 °FPassing clouds.13 mph59%29.95 "HgN/A
2:00 PM90 °FPassing clouds.14 mph59%29.95 "HgN/A
1:00 PM88 °FPassing clouds.14 mph62%29.98 "HgN/A
12:00 PM90 °FPassing clouds.12 mph63%29.98 "HgN/A
11:00 AM88 °FPassing clouds.14 mph62%30.01 "HgN/A
10:00 AM88 °FPassing clouds.14 mph62%30.01 "HgN/A
9:00 AM86 °FPassing clouds.14 mph66%30.01 "HgN/A
8:00 AM86 °FPassing clouds.12 mph70%29.98 "HgN/A
7:00 AM82 °FPassing clouds.10 mph79%29.98 "HgN/A
6:00 AM81 °FPassing clouds.12 mph84%29.95 "HgN/A
Weather by CustomWeather, © 2015

See weather overviewHow to use our weather pages